| time (UTC) | temp F | wind direction | speed MPH | gust MPH | rain 1hr in | rain 24hr in | rain mn in | humidity % | barometer mb |
| 20260506003229 | 68 | 222 | 0.0 | 4.0 | 0.00 | 0.00 | 0.00 | 75 | 1016.9 |
| 20260506002728 | 68 | 200 | 2.0 | 7.0 | 0.00 | 0.00 | 0.00 | 75 | 1016.9 |
| 20260506002230 | 68 | 218 | 4.0 | 13.0 | 0.00 | 0.00 | 0.00 | 74 | 1016.9 |
| 20260506001727 | 68 | 190 | 4.0 | 9.0 | 0.00 | 0.00 | 0.00 | 74 | 1016.9 |
| 20260506001227 | 69 | 226 | 4.0 | 11.0 | 0.00 | 0.00 | 0.00 | 73 | 1016.9 |
| 20260506000729 | 69 | 227 | 2.0 | 7.0 | 0.00 | 0.00 | 0.00 | 72 | 1016.9 |
| 20260506000227 | 69 | 198 | 4.0 | 7.0 | 0.00 | 0.00 | 0.00 | 72 | 1016.9 |
| 20260505235730 | 69 | 170 | 4.0 | 14.0 | 0.00 | 0.00 | 0.00 | 71 | 1016.9 |
| 20260505235228 | 70 | 214 | 9.0 | 18.0 | 0.00 | 0.00 | 0.00 | 71 | 1016.9 |
| 20260505234727 | 70 | 196 | 4.0 | 13.0 | 0.00 | 0.00 | 0.00 | 71 | 1016.9 |
| 20260505234227 | 70 | 210 | 4.0 | 14.0 | 0.00 | 0.00 | 0.00 | 71 | 1016.9 |
| 20260505233728 | 70 | 197 | 4.0 | 13.0 | 0.00 | 0.00 | 0.00 | 71 | 1016.9 |
| 20260505233227 | 70 | 197 | 7.0 | 11.0 | 0.00 | 0.00 | 0.00 | 71 | 1016.9 |
| 20260505232727 | 70 | 248 | 7.0 | 13.0 | 0.00 | 0.00 | 0.00 | 71 | 1016.9 |
| 20260505232228 | 71 | 218 | 4.0 | 11.0 | 0.00 | 0.00 | 0.00 | 71 | 1016.9 |
| 20260505231729 | 71 | 238 | 4.0 | 13.0 | 0.00 | 0.00 | 0.00 | 70 | 1016.9 |
| 20260505231229 | 71 | 164 | 7.0 | 18.0 | 0.00 | 0.00 | 0.00 | 70 | 1016.9 |
| 20260505230727 | 71 | 224 | 9.0 | 16.0 | 0.00 | 0.00 | 0.00 | 69 | 1016.9 |
| 20260505230229 | 72 | 221 | 11.0 | 16.0 | 0.00 | 0.00 | 0.00 | 68 | 1016.9 |
| 20260505225727 | 72 | 229 | 13.0 | 18.0 | 0.00 | 0.00 | 0.00 | 68 | 1016.9 |
| 20260505225228 | 73 | 225 | 7.0 | 16.0 | 0.00 | 0.00 | 0.00 | 67 | 1016.9 |
| 20260505224727 | 73 | 199 | 4.0 | 13.0 | 0.00 | 0.00 | 0.00 | 67 | 1016.9 |
| 20260505224228 | 73 | 220 | 11.0 | 20.0 | 0.00 | 0.00 | 0.00 | 67 | 1016.9 |
| 20260505223727 | 73 | 239 | 4.0 | 9.0 | 0.00 | 0.00 | 0.00 | 68 | 1016.9 |
| 20260505223232 | 73 | 237 | 7.0 | 13.0 | 0.00 | 0.00 | 0.00 | 67 | 1016.9 |
| 20260505222727 | 73 | 211 | 9.0 | 18.0 | 0.00 | 0.00 | 0.00 | 66 | 1016.9 |
| 20260505222228 | 74 | 196 | 7.0 | 14.0 | 0.00 | 0.00 | 0.00 | 66 | 1016.9 |
| 20260505221728 | 74 | 187 | 9.0 | 20.0 | 0.00 | 0.00 | 0.00 | 66 | 1016.9 |
| 20260505221228 | 74 | 195 | 11.0 | 27.0 | 0.00 | 0.00 | 0.00 | 66 | 1016.9 |
| 20260505220727 | 75 | 193 | 4.0 | 13.0 | 0.00 | 0.00 | 0.00 | 66 | 1016.9 |
| 20260505220229 | 75 | 121 | 9.0 | 16.0 | 0.00 | 0.00 | 0.00 | 66 | 1016.9 |
| 20260505215730 | 75 | 217 | 7.0 | 16.0 | 0.00 | 0.00 | 0.00 | 65 | 1016.9 |
| 20260505215230 | 75 | 220 | 9.0 | 22.0 | 0.00 | 0.00 | 0.00 | 66 | 1016.9 |
| 20260505214729 | 75 | 199 | 4.0 | 16.0 | 0.00 | 0.00 | 0.00 | 68 | 1016.9 |
| 20260505214227 | 75 | 194 | 7.0 | 14.0 | 0.00 | 0.00 | 0.00 | 65 | 1016.6 |
| 20260505213728 | 75 | 221 | 4.0 | 20.0 | 0.00 | 0.00 | 0.00 | 65 | 1016.6 |
| 20260505213230 | 75 | 103 | 2.0 | 5.0 | 0.00 | 0.00 | 0.00 | 66 | 1016.6 |
| 20260505212729 | 74 | 123 | 4.0 | 9.0 | 0.00 | 0.00 | 0.00 | 66 | 1016.6 |
| 20260505212230 | 74 | 142 | 4.0 | 16.0 | 0.00 | 0.00 | 0.00 | 66 | 1016.6 |
| 20260505211728 | 75 | 219 | 4.0 | 20.0 | 0.00 | 0.00 | 0.00 | 65 | 1016.6 |
| 20260505211227 | 76 | 208 | 2.0 | 7.0 | 0.00 | 0.00 | 0.00 | 65 | 1016.6 |
| 20260505210731 | 76 | 154 | 4.0 | 13.0 | 0.00 | 0.00 | 0.00 | 66 | 1016.6 |
| 20260505210230 | 74 | 186 | 7.0 | 20.0 | 0.00 | 0.00 | 0.00 | 67 | 1016.6 |
| 20260505205727 | 74 | 189 | 4.0 | 7.0 | 0.00 | 0.00 | 0.00 | 67 | 1016.6 |
| 20260505205229 | 75 | 236 | 4.0 | 7.0 | 0.00 | 0.00 | 0.00 | 67 | 1016.9 |
| 20260505204732 | 75 | 210 | 4.0 | 9.0 | 0.00 | 0.00 | 0.00 | 66 | 1016.6 |
| 20260505204227 | 74 | 187 | 7.0 | 13.0 | 0.00 | 0.00 | 0.00 | 67 | 1016.9 |
| 20260505203730 | 76 | 226 | 11.0 | 20.0 | 0.00 | 0.00 | 0.00 | 64 | 1016.9 |
| 20260505203227 | 77 | 241 | 7.0 | 16.0 | 0.00 | 0.00 | 0.00 | 64 | 1016.9 |
| 20260505202728 | 77 | 240 | 2.0 | 7.0 | 0.00 | 0.00 | 0.00 | 64 | 1016.9 |
| 20260505202227 | 76 | 252 | 4.0 | 16.0 | 0.00 | 0.00 | 0.00 | 68 | 1016.9 |
| 20260505201729 | 75 | 261 | 7.0 | 14.0 | 0.00 | 0.00 | 0.00 | 67 | 1016.9 |
| 20260505201230 | 74 | 211 | 7.0 | 13.0 | 0.00 | 0.00 | 0.00 | 66 | 1016.9 |
| 20260505200729 | 76 | 132 | 2.0 | 7.0 | 0.00 | 0.00 | 0.00 | 65 | 1017.3 |
| 20260505200229 | 75 | 174 | 4.0 | 13.0 | 0.00 | 0.00 | 0.00 | 66 | 1017.3 |
| 20260505195730 | 76 | 113 | 4.0 | 7.0 | 0.00 | 0.00 | 0.00 | 66 | 1016.9 |
| 20260505195227 | 76 | 164 | 4.0 | 9.0 | 0.00 | 0.00 | 0.00 | 67 | 1016.9 |
| 20260505194731 | 77 | 186 | 7.0 | 14.0 | 0.00 | 0.00 | 0.00 | 62 | 1017.3 |
| 20260505194228 | 77 | 185 | 4.0 | 11.0 | 0.00 | 0.00 | 0.00 | 63 | 1017.3 |
| 20260505193729 | 76 | 274 | 4.0 | 16.0 | 0.00 | 0.00 | 0.00 | 62 | 1017.3 |
| 20260505192811 | 78 | 219 | 7.0 | 18.0 | 0.00 | 0.00 | 0.00 | 58 | 1017.6 |
| 20260505191730 | 79 | 224 | 7.0 | 18.0 | 0.00 | 0.00 | 0.00 | 58 | 1017.6 |
| 20260505191228 | 78 | 163 | 4.0 | 9.0 | 0.00 | 0.00 | 0.00 | 58 | 1017.6 |
| 20260505190727 | 77 | 195 | 4.0 | 9.0 | 0.00 | 0.00 | 0.00 | 59 | 1017.9 |
| 20260505190229 | 77 | 196 | 4.0 | 9.0 | 0.00 | 0.00 | 0.00 | 59 | 1017.6 |
| 20260505185728 | 77 | 136 | 4.0 | 11.0 | 0.00 | 0.00 | 0.00 | 58 | 1017.6 |
| 20260505185227 | 77 | 131 | 4.0 | 13.0 | 0.00 | 0.00 | 0.00 | 60 | 1017.9 |
| 20260505184729 | 77 | 192 | 4.0 | 7.0 | 0.00 | 0.00 | 0.00 | 60 | 1017.9 |
| 20260505184229 | 77 | 153 | 4.0 | 18.0 | 0.00 | 0.00 | 0.00 | 57 | 1017.9 |
| 20260505183734 | 77 | 156 | 4.0 | 16.0 | 0.00 | 0.00 | 0.00 | 60 | 1017.9 |
| 20260505183227 | 77 | 172 | 4.0 | 13.0 | 0.00 | 0.00 | 0.00 | 62 | 1017.9 |
| 20260505182729 | 79 | 147 | 2.0 | 7.0 | 0.00 | 0.00 | 0.00 | 59 | 1017.9 |
| 20260505182228 | 79 | 157 | 9.0 | 20.0 | 0.00 | 0.00 | 0.00 | 60 | 1017.9 |
| 20260505181730 | 78 | 222 | 4.0 | 11.0 | 0.00 | 0.00 | 0.00 | 60 | 1017.9 |
| 20260505181229 | 78 | 205 | 4.0 | 9.0 | 0.00 | 0.00 | 0.00 | 60 | 1017.9 |
| 20260505180730 | 77 | 209 | 4.0 | 13.0 | 0.00 | 0.00 | 0.00 | 59 | 1017.9 |
| 20260505180228 | 78 | 212 | 4.0 | 13.0 | 0.00 | 0.00 | 0.00 | 60 | 1017.9 |
| 20260505175727 | 77 | 218 | 4.0 | 16.0 | 0.00 | 0.00 | 0.00 | 57 | 1017.9 |
| 20260505175227 | 77 | 161 | 4.0 | 7.0 | 0.00 | 0.00 | 0.00 | 60 | 1017.9 |
| 20260505174730 | 78 | 176 | 4.0 | 7.0 | 0.00 | 0.00 | 0.00 | 57 | 1017.9 |
| 20260505174228 | 79 | 213 | 7.0 | 18.0 | 0.00 | 0.00 | 0.00 | 58 | 1017.9 |
| 20260505173729 | 78 | 213 | 4.0 | 18.0 | 0.00 | 0.00 | 0.00 | 58 | 1017.9 |
| 20260505173228 | 78 | 179 | 9.0 | 16.0 | 0.00 | 0.00 | 0.00 | 58 | 1017.9 |
| 20260505172728 | 78 | 211 | 4.0 | 11.0 | 0.00 | 0.00 | 0.00 | 62 | 1017.9 |
| 20260505172229 | 78 | 167 | 4.0 | 11.0 | 0.00 | 0.00 | 0.00 | 59 | 1017.9 |
| 20260505171730 | 77 | 234 | 4.0 | 9.0 | 0.00 | 0.00 | 0.00 | 60 | 1017.9 |
| 20260505171230 | 77 | 201 | 4.0 | 9.0 | 0.00 | 0.00 | 0.00 | 59 | 1017.9 |
| 20260505170728 | 78 | 152 | 7.0 | 11.0 | 0.00 | 0.00 | 0.00 | 59 | 1017.9 |
| 20260505170227 | 78 | 229 | 4.0 | 7.0 | 0.00 | 0.00 | 0.00 | 59 | 1017.9 |
| 20260505165728 | 77 | 204 | 2.0 | 5.0 | 0.00 | 0.00 | 0.00 | 60 | 1017.9 |
| 20260505165229 | 78 | 231 | 7.0 | 13.0 | 0.00 | 0.00 | 0.00 | 58 | 1017.9 |
| 20260505164728 | 77 | 173 | 2.0 | 7.0 | 0.00 | 0.00 | 0.00 | 58 | 1018.3 |
| 20260505164229 | 77 | 171 | 9.0 | 22.0 | 0.00 | 0.00 | 0.00 | 60 | 1018.3 |
| 20260505163727 | 77 | 209 | 11.0 | 23.0 | 0.00 | 0.00 | 0.00 | 59 | 1018.3 |
| 20260505163230 | 77 | 173 | 4.0 | 14.0 | 0.00 | 0.00 | 0.00 | 58 | 1018.3 |
| 20260505162730 | 77 | 206 | 7.0 | 16.0 | 0.00 | 0.00 | 0.00 | 59 | 1018.3 |
| 20260505162228 | 76 | 92 | 4.0 | 7.0 | 0.00 | 0.00 | 0.00 | 59 | 1018.3 |
| 20260505161728 | 76 | 131 | 7.0 | 16.0 | 0.00 | 0.00 | 0.00 | 58 | 1018.3 |
| 20260505161230 | 77 | 200 | 7.0 | 16.0 | 0.00 | 0.00 | 0.00 | 58 | 1018.3 |
| 20260505160728 | 77 | 176 | 7.0 | 14.0 | 0.00 | 0.00 | 0.00 | 58 | 1018.3 |
| 20260505160227 | 76 | 217 | 4.0 | 7.0 | 0.00 | 0.00 | 0.00 | 60 | 1018.3 |
| 20260505153227 | 76 | 254 | 4.0 | 11.0 | 0.00 | 0.00 | 0.00 | 62 | 1018.6 |
| 20260505152730 | 76 | 257 | 9.0 | 18.0 | 0.00 | 0.00 | 0.00 | 61 | 1018.6 |
| 20260505152229 | 75 | 235 | 7.0 | 14.0 | 0.00 | 0.00 | 0.00 | 61 | 1018.6 |
| 20260505151730 | 75 | 205 | 4.0 | 13.0 | 0.00 | 0.00 | 0.00 | 62 | 1018.6 |
| 20260505151229 | 75 | 245 | 11.0 | 18.0 | 0.00 | 0.00 | 0.00 | 61 | 1018.6 |
| 20260505150729 | 75 | 208 | 9.0 | 16.0 | 0.00 | 0.00 | 0.00 | 63 | 1018.6 |
| 20260505150229 | 74 | 245 | 7.0 | 11.0 | 0.00 | 0.00 | 0.00 | 61 | 1019.0 |
| 20260505140227 | 71 | 189 | 11.0 | 16.0 | 0.00 | 0.00 | 0.00 | 70 | 1018.6 |
| 20260505130230 | 67 | 213 | 9.0 | 14.0 | 0.00 | 0.00 | 0.00 | 79 | 1018.6 |
| 20260505124728 | 65 | 228 | 4.0 | 9.0 | 0.00 | 0.00 | 0.00 | 84 | 1018.6 |
| 20260505124228 | 64 | 215 | 4.0 | 9.0 | 0.00 | 0.00 | 0.00 | 86 | 1018.6 |
| 20260505123729 | 63 | 232 | 7.0 | 9.0 | 0.00 | 0.00 | 0.00 | 87 | 1018.6 |
| 20260505123230 | 62 | 217 | 7.0 | 13.0 | 0.00 | 0.00 | 0.00 | 90 | 1018.6 |
| 20260505122729 | 61 | 236 | 7.0 | 11.0 | 0.00 | 0.00 | 0.00 | 92 | 1018.6 |
| 20260505122228 | 60 | 219 | 4.0 | 5.0 | 0.00 | 0.00 | 0.00 | 96 | 1018.6 |
| 20260505121729 | 59 | 231 | 2.0 | 5.0 | 0.00 | 0.00 | 0.00 | 98 | 1018.6 |
| 20260505121228 | 58 | 215 | 2.0 | 5.0 | 0.00 | 0.00 | 0.00 | 99 | 1018.6 |
| 20260505120728 | 58 | 238 | 2.0 | 5.0 | 0.00 | 0.00 | 0.00 | 99 | 1018.6 |
| 20260505120230 | 57 | 222 | 2.0 | 5.0 | 0.00 | 0.00 | 0.00 | 99 | 1018.6 |
| 20260505115729 | 56 | 228 | 2.0 | 4.0 | 0.00 | 0.00 | 0.00 | 99 | 1018.6 |
| 20260505115228 | 55 | 219 | 0.0 | 0.0 | 0.00 | 0.00 | 0.00 | 99 | 1018.6 |
| 20260505114729 | 55 | 219 | 0.0 | 0.0 | 0.00 | 0.00 | 0.00 | 99 | 1018.3 |
| 20260505114229 | 54 | 219 | 0.0 | 0.0 | 0.00 | 0.00 | 0.00 | 99 | 1018.6 |
| 20260505113730 | 54 | 219 | 0.0 | 0.0 | 0.00 | 0.00 | 0.00 | 99 | 1018.3 |
| 20260505113231 | 54 | 219 | 0.0 | 0.0 | 0.00 | 0.00 | 0.00 | 99 | 1018.3 |
| 20260505112729 | 53 | 218 | 0.0 | 0.0 | 0.00 | 0.00 | 0.00 | 99 | 1018.3 |
| 20260505112229 | 53 | 218 | 0.0 | 0.0 | 0.00 | 0.00 | 0.00 | 99 | 1018.3 |
| 20260505111727 | 53 | 218 | 0.0 | 0.0 | 0.00 | 0.00 | 0.00 | 99 | 1018.3 |
| 20260505111227 | 53 | 216 | 0.0 | 0.0 | 0.00 | 0.00 | 0.00 | 98 | 1018.3 |
| 20260505110729 | 52 | 219 | 0.0 | 0.0 | 0.00 | 0.00 | 0.00 | 98 | 1018.3 |
| 20260505110227 | 52 | 216 | 0.0 | 0.0 | 0.00 | 0.00 | 0.00 | 98 | 1017.9 |
| 20260505101728 | 52 | 211 | 0.0 | 0.0 | 0.00 | 0.00 | 0.00 | 98 | 1017.6 |
| 20260505101228 | 52 | 211 | 0.0 | 0.0 | 0.00 | 0.00 | 0.00 | 98 | 1017.6 |
| 20260505100728 | 52 | 211 | 0.0 | 0.0 | 0.00 | 0.00 | 0.00 | 98 | 1017.3 |
| 20260505100228 | 52 | 213 | 0.0 | 0.0 | 0.00 | 0.00 | 0.00 | 98 | 1017.3 |
| 20260505095727 | 52 | 213 | 0.0 | 0.0 | 0.00 | 0.00 | 0.00 | 98 | 1017.3 |
| 20260505095228 | 52 | 211 | 0.0 | 0.0 | 0.00 | 0.00 | 0.00 | 97 | 1017.3 |
| 20260505094727 | 52 | 210 | 0.0 | 0.0 | 0.00 | 0.00 | 0.00 | 97 | 1016.9 |
| 20260505094227 | 52 | 211 | 0.0 | 0.0 | 0.00 | 0.00 | 0.00 | 97 | 1016.9 |
| 20260505093727 | 52 | 210 | 0.0 | 0.0 | 0.00 | 0.00 | 0.00 | 97 | 1016.9 |
| 20260505093227 | 52 | 211 | 0.0 | 0.0 | 0.00 | 0.00 | 0.00 | 97 | 1016.9 |
| 20260505092730 | 52 | 211 | 0.0 | 0.0 | 0.00 | 0.00 | 0.00 | 97 | 1016.9 |
| 20260505092227 | 52 | 208 | 0.0 | 0.0 | 0.00 | 0.00 | 0.00 | 97 | 1016.9 |
| 20260505091727 | 52 | 208 | 0.0 | 0.0 | 0.00 | 0.00 | 0.00 | 97 | 1016.9 |
| 20260505091228 | 52 | 211 | 0.0 | 0.0 | 0.00 | 0.00 | 0.00 | 97 | 1016.9 |
| 20260505090729 | 52 | 210 | 0.0 | 0.0 | 0.00 | 0.00 | 0.00 | 97 | 1016.9 |
| 20260505085728 | 53 | 213 | 0.0 | 0.0 | 0.00 | 0.00 | 0.00 | 97 | 1016.9 |
| 20260505085227 | 53 | 210 | 0.0 | 0.0 | 0.00 | 0.00 | 0.00 | 97 | 1016.9 |
| 20260505084727 | 53 | 206 | 0.0 | 0.0 | 0.00 | 0.00 | 0.00 | 97 | 1016.9 |
| 20260505084227 | 53 | 213 | 0.0 | 0.0 | 0.00 | 0.00 | 0.00 | 96 | 1016.9 |
| 20260505083727 | 53 | 214 | 0.0 | 0.0 | 0.00 | 0.00 | 0.00 | 96 | 1016.9 |
| 20260505083227 | 53 | 210 | 0.0 | 0.0 | 0.00 | 0.00 | 0.00 | 96 | 1016.9 |
| 20260505082727 | 53 | 210 | 0.0 | 0.0 | 0.00 | 0.00 | 0.00 | 96 | 1016.9 |
| 20260505082230 | 53 | 214 | 0.0 | 0.0 | 0.00 | 0.00 | 0.00 | 96 | 1016.9 |
| 20260505081730 | 53 | 213 | 0.0 | 0.0 | 0.00 | 0.00 | 0.00 | 96 | 1016.9 |
| 20260505081229 | 53 | 213 | 0.0 | 0.0 | 0.00 | 0.00 | 0.00 | 96 | 1016.9 |
| 20260505080730 | 53 | 213 | 0.0 | 0.0 | 0.00 | 0.00 | 0.00 | 96 | 1016.9 |
| 20260505080229 | 53 | 214 | 0.0 | 0.0 | 0.00 | 0.00 | 0.00 | 96 | 1016.9 |
| 20260505075730 | 54 | 210 | 0.0 | 0.0 | 0.00 | 0.00 | 0.00 | 95 | 1016.6 |
| 20260505075231 | 54 | 214 | 0.0 | 0.0 | 0.00 | 0.00 | 0.00 | 95 | 1016.6 |
| 20260505074730 | 54 | 216 | 0.0 | 0.0 | 0.00 | 0.00 | 0.00 | 95 | 1016.6 |
| 20260505074229 | 54 | 206 | 0.0 | 0.0 | 0.00 | 0.00 | 0.00 | 95 | 1016.6 |
| 20260505073729 | 54 | 202 | 0.0 | 0.0 | 0.00 | 0.00 | 0.00 | 95 | 1016.6 |
| 20260505073228 | 54 | 214 | 0.0 | 0.0 | 0.00 | 0.00 | 0.00 | 95 | 1016.6 |
| 20260505072730 | 54 | 216 | 0.0 | 0.0 | 0.00 | 0.00 | 0.00 | 95 | 1016.6 |
| 20260505072228 | 54 | 214 | 0.0 | 0.0 | 0.00 | 0.00 | 0.00 | 94 | 1016.6 |
| 20260505071730 | 55 | 216 | 0.0 | 0.0 | 0.00 | 0.00 | 0.00 | 94 | 1016.6 |
| 20260505071230 | 55 | 210 | 0.0 | 0.0 | 0.00 | 0.00 | 0.00 | 94 | 1016.6 |
| 20260505070731 | 55 | 210 | 0.0 | 0.0 | 0.00 | 0.00 | 0.00 | 94 | 1016.6 |
| 20260505070227 | 55 | 214 | 0.0 | 0.0 | 0.00 | 0.00 | 0.00 | 93 | 1016.6 |
| 20260505065728 | 55 | 214 | 0.0 | 0.0 | 0.00 | 0.00 | 0.00 | 93 | 1016.6 |
| 20260505065228 | 55 | 215 | 0.0 | 0.0 | 0.00 | 0.00 | 0.00 | 93 | 1016.6 |
| 20260505064729 | 55 | 215 | 0.0 | 0.0 | 0.00 | 0.00 | 0.00 | 93 | 1016.9 |
| 20260505064228 | 55 | 215 | 0.0 | 0.0 | 0.00 | 0.00 | 0.00 | 93 | 1016.6 |
| 20260505063727 | 55 | 214 | 0.0 | 0.0 | 0.00 | 0.00 | 0.00 | 92 | 1016.6 |
| 20260505063228 | 55 | 214 | 0.0 | 0.0 | 0.00 | 0.00 | 0.00 | 92 | 1016.6 |
| 20260505062734 | 56 | 215 | 0.0 | 0.0 | 0.00 | 0.00 | 0.00 | 92 | 1016.9 |
| 20260505062228 | 56 | 214 | 0.0 | 0.0 | 0.00 | 0.00 | 0.00 | 92 | 1016.6 |
| 20260505061729 | 56 | 214 | 0.0 | 0.0 | 0.00 | 0.00 | 0.00 | 92 | 1016.9 |
| 20260505061228 | 56 | 214 | 0.0 | 0.0 | 0.00 | 0.00 | 0.00 | 91 | 1016.9 |
| 20260505060729 | 56 | 214 | 0.0 | 0.0 | 0.00 | 0.00 | 0.00 | 91 | 1016.9 |
| 20260505060230 | 56 | 214 | 0.0 | 0.0 | 0.00 | 0.00 | 0.00 | 91 | 1017.3 |
| 20260505055729 | 57 | 215 | 0.0 | 0.0 | 0.00 | 0.00 | 0.00 | 90 | 1017.3 |
| 20260505055227 | 57 | 215 | 0.0 | 0.0 | 0.00 | 0.00 | 0.00 | 90 | 1017.3 |
| 20260505054728 | 57 | 214 | 0.0 | 0.0 | 0.00 | 0.00 | 0.00 | 90 | 1017.3 |
| 20260505054227 | 57 | 214 | 0.0 | 0.0 | 0.00 | 0.00 | 0.00 | 90 | 1017.3 |
| 20260505053729 | 58 | 214 | 0.0 | 0.0 | 0.00 | 0.00 | 0.00 | 90 | 1017.3 |
| 20260505053228 | 58 | 214 | 0.0 | 0.0 | 0.00 | 0.00 | 0.00 | 89 | 1017.3 |
| 20260505052727 | 58 | 214 | 0.0 | 0.0 | 0.00 | 0.00 | 0.00 | 89 | 1017.3 |
| 20260505052227 | 58 | 214 | 0.0 | 0.0 | 0.00 | 0.00 | 0.00 | 89 | 1017.3 |
| 20260505051728 | 59 | 214 | 0.0 | 4.0 | 0.00 | 0.00 | 0.00 | 88 | 1017.3 |
| 20260505051227 | 59 | 232 | 0.0 | 4.0 | 0.00 | 0.00 | 0.00 | 88 | 1017.3 |
| 20260505050729 | 59 | 221 | 0.0 | 2.0 | 0.00 | 0.00 | 0.00 | 88 | 1016.9 |
| 20260505050227 | 59 | 219 | 0.0 | 0.0 | 0.00 | 0.00 | 0.00 | 88 | 1017.3 |
| 20260505041727 | 60 | 229 | 0.0 | 2.0 | 0.00 | 0.00 | 0.00 | 87 | 1017.3 |
| 20260505041228 | 60 | 206 | 2.0 | 5.0 | 0.00 | 0.00 | 0.00 | 87 | 1017.3 |
| 20260505040728 | 60 | 210 | 2.0 | 7.0 | 0.00 | 0.00 | 0.00 | 87 | 1017.3 |
| 20260505040228 | 60 | 213 | 0.0 | 0.0 | 0.00 | 0.00 | 0.00 | 86 | 1017.3 |
| 20260505035728 | 61 | 212 | 0.0 | 5.0 | 0.00 | 0.00 | 0.06 | 86 | 1017.3 |
| 20260505035229 | 61 | 220 | 4.0 | 7.0 | 0.00 | 0.00 | 0.06 | 86 | 1017.3 |
| 20260505034727 | 61 | 228 | 4.0 | 7.0 | 0.00 | 0.00 | 0.06 | 86 | 1017.3 |
| 20260505034229 | 60 | 261 | 2.0 | 5.0 | 0.00 | 0.00 | 0.06 | 85 | 1017.3 |
| 20260505033727 | 61 | 222 | 2.0 | 5.0 | 0.00 | 0.00 | 0.06 | 84 | 1017.3 |
| 20260505033231 | 61 | 231 | 2.0 | 5.0 | 0.00 | 0.00 | 0.06 | 84 | 1017.3 |
| 20260505032728 | 61 | 210 | 4.0 | 11.0 | 0.00 | 0.00 | 0.06 | 84 | 1017.3 |
| 20260505032227 | 61 | 225 | 4.0 | 7.0 | 0.00 | 0.00 | 0.06 | 83 | 1017.3 |
| 20260505031728 | 61 | 242 | 2.0 | 7.0 | 0.00 | 0.00 | 0.06 | 83 | 1017.3 |
| 20260505031227 | 61 | 222 | 4.0 | 5.0 | 0.00 | 0.00 | 0.06 | 83 | 1017.6 |
| 20260505030729 | 61 | 213 | 4.0 | 7.0 | 0.00 | 0.00 | 0.06 | 82 | 1017.6 |
| 20260505030227 | 61 | 218 | 7.0 | 9.0 | 0.00 | 0.00 | 0.06 | 83 | 1017.6 |
| 20260505025727 | 61 | 204 | 2.0 | 5.0 | 0.00 | 0.00 | 0.06 | 82 | 1017.6 |
| 20260505025227 | 61 | 211 | 0.0 | 2.0 | 0.00 | 0.00 | 0.06 | 81 | 1017.6 |
| 20260505024727 | 62 | 207 | 0.0 | 4.0 | 0.00 | 0.00 | 0.06 | 80 | 1017.6 |
| 20260505024227 | 62 | 209 | 2.0 | 5.0 | 0.00 | 0.00 | 0.06 | 80 | 1017.6 |
| 20260505023728 | 62 | 208 | 4.0 | 9.0 | 0.00 | 0.00 | 0.06 | 80 | 1017.6 |
| 20260505023227 | 62 | 204 | 4.0 | 11.0 | 0.00 | 0.00 | 0.06 | 81 | 1017.6 |
| 20260505022730 | 62 | 210 | 4.0 | 7.0 | 0.00 | 0.00 | 0.06 | 82 | 1017.6 |
| 20260505022228 | 61 | 214 | 4.0 | 5.0 | 0.00 | 0.00 | 0.06 | 82 | 1017.6 |
| 20260505021730 | 61 | 170 | 2.0 | 5.0 | 0.00 | 0.00 | 0.06 | 81 | 1017.6 |
| 20260505021227 | 61 | 204 | 0.0 | 4.0 | 0.00 | 0.00 | 0.06 | 80 | 1017.3 |
| 20260505020728 | 62 | 218 | 0.0 | 2.0 | 0.00 | 0.00 | 0.06 | 79 | 1017.6 |
| 20260505020229 | 62 | 203 | 0.0 | 4.0 | 0.00 | 0.00 | 0.06 | 79 | 1017.6 |
| 20260505015727 | 62 | 215 | 0.0 | 4.0 | 0.00 | 0.00 | 0.06 | 78 | 1017.6 |
| 20260505015228 | 63 | 213 | 0.0 | 5.0 | 0.00 | 0.00 | 0.06 | 78 | 1017.6 |
| 20260505014730 | 63 | 208 | 2.0 | 5.0 | 0.00 | 0.00 | 0.06 | 77 | 1017.6 |
| 20260505014227 | 63 | 215 | 0.0 | 4.0 | 0.00 | 0.00 | 0.06 | 77 | 1017.6 |
| 20260505013730 | 63 | 204 | 2.0 | 5.0 | 0.00 | 0.00 | 0.06 | 77 | 1017.3 |
| 20260505013227 | 63 | 223 | 2.0 | 5.0 | 0.00 | 0.00 | 0.06 | 76 | 1017.3 |
| 20260505012728 | 64 | 205 | 2.0 | 5.0 | 0.00 | 0.00 | 0.06 | 76 | 1017.3 |
| 20260505012228 | 64 | 221 | 2.0 | 7.0 | 0.00 | 0.00 | 0.06 | 75 | 1016.9 |
| 20260505011728 | 64 | 204 | 2.0 | 7.0 | 0.00 | 0.00 | 0.06 | 75 | 1016.9 |
| 20260505011228 | 64 | 221 | 4.0 | 5.0 | 0.00 | 0.00 | 0.06 | 75 | 1016.9 |
| 20260505010728 | 64 | 217 | 4.0 | 7.0 | 0.00 | 0.00 | 0.06 | 75 | 1016.9 |
| 20260505010228 | 64 | 232 | 2.0 | 5.0 | 0.00 | 0.00 | 0.06 | 74 | 1016.9 |
| 20260505005227 | 65 | 207 | 4.0 | 11.0 | 0.00 | 0.00 | 0.06 | 73 | 1016.9 |
| 20260505004727 | 65 | 212 | 7.0 | 14.0 | 0.00 | 0.00 | 0.06 | 72 | 1016.6 |
| 20260505004228 | 65 | 219 | 4.0 | 11.0 | 0.00 | 0.00 | 0.06 | 72 | 1016.6 |
| 20260505003727 | 65 | 224 | 7.0 | 13.0 | 0.00 | 0.00 | 0.06 | 72 | 1016.6 |